Date,TemperatureHighF,TemperatureAvgF,TemperatureLowF,DewpointHighF,DewpointAvgF,DewpointLowF,HumidityHigh,HumidityAvg,HumidityLow,PressureMaxIn,PressureMinIn,WindSpeedMaxMPH,WindSpeedAvgMPH,GustSpeedMaxMPH,PrecipitationSumIn
2013-1-1,17.3,10.8,5.4,9.6,4.6,2.0,86,76,63,30.38,30.27,5,2,11,0.00
2013-1-2,32.1,19.8,6.4,21.4,12.1,1.5,84,72,54,30.34,30.19,5,2,12,0.00
2013-1-3,26.4,22.5,12.8,23.6,18.9,8.9,90,86,81,30.40,30.20,6,4,12,0.00
2013-1-4,31.6,21.8,10.9,23.6,16.9,7.4,89,81,69,30.37,30.26,9,5,21,0.00
2013-1-5,35.1,29.3,18.9,33.2,26.6,17.3,96,90,76,30.35,30.02,7,4,18,0.06
2013-1-6,34.7,24.1,16.4,32.2,20.2,14.5,92,85,78,30.43,30.01,7,3,17,0.00
2013-1-7,41.4,28.7,14.9,28.1,21.9,13.0,93,77,51,30.42,30.19,10,4,22,0.00
2013-1-8,41.1,34.8,26.3,32.4,29.1,23.8,90,80,70,30.24,30.09,7,3,19,0.00
2013-1-9,42.2,36.0,27.9,32.6,28.4,24.3,86,74,55,30.58,30.08,11,5,25,0.00
2013-1-10,43.9,31.0,24.2,38.4,25.7,22.0,97,81,49,30.59,29.96,10,3,20,0.63
2013-1-11,50.2,46.1,40.0,47.8,45.0,39.2,98,96,89,29.95,29.73,7,4,19,0.32
2013-1-12,52.1,37.2,23.5,47.2,32.2,20.7,91,82,74,30.10,29.74,10,5,24,0.00
2013-1-13,23.6,18.3,11.1,21.1,13.1,5.7,92,80,72,30.36,29.99,8,4,17,0.00
2013-1-14,24.5,14.8,8.0,11.6,8.2,4.9,89,76,54,30.59,30.37,4,1,11,0.00
2013-1-15,29.5,18.8,9.3,15.9,12.4,7.4,92,77,53,30.57,30.25,3,1,8,0.00
2013-1-16,34.9,26.1,15.3,30.8,19.9,10.2,91,78,59,30.24,29.94,9,4,21,0.00
2013-1-17,33.6,24.0,18.7,30.5,13.4,6.8,90,64,47,30.52,30.18,8,3,17,0.00
2013-1-18,43.2,31.8,17.0,32.6,24.9,14.1,89,76,65,30.54,29.98,13,5,29,0.00
2013-1-19,46.5,39.2,20.0,36.9,30.7,8.3,80,71,53,30.06,29.80,14,6,36,0.00
2013-1-20,19.2,13.2,8.9,7.3,3.0,0.5,70,63,51,30.43,30.07,9,4,29,0.00
2013-1-21,10.9,5.7,1.3,4.1,-4.2,-7.9,76,64,50,30.43,30.28,8,5,21,0.00
2013-1-22,10.3,3.7,-3.7,-2.0,-5.6,-9.4,79,65,52,30.54,30.43,7,3,16,0.00
2013-1-23,19.6,13.7,8.6,15.8,5.8,-2.4,86,70,60,30.52,30.25,12,4,27,0.00
2013-1-24,19.3,11.4,2.3,8.1,0.6,-5.0,72,62,45,30.79,30.49,8,3,18,0.00
2013-1-25,29.8,21.4,16.4,19.0,14.2,5.6,89,74,57,30.49,30.07,8,4,22,0.00
2013-1-26,27.8,18.4,7.6,15.0,9.1,4.3,87,68,47,30.53,30.32,4,2,10,0.00
2013-1-27,35.6,28.7,23.6,34.8,24.1,14.6,97,83,68,30.47,29.97,8,5,20,0.03
2013-1-28,46.5,40.2,35.7,46.0,38.4,34.9,98,93,80,30.03,29.85,8,4,16,0.20
2013-1-29,61.1,52.1,37.0,58.5,50.9,36.0,98,96,82,29.86,29.50,9,3,20,0.84
2013-1-30,36.6,29.6,17.3,35.6,28.0,13.3,97,94,84,29.75,29.34,9,4,20,0.33
2013-1-31,16.7,9.8,0.6,12.7,4.6,-3.9,90,79,71,30.32,29.75,8,6,22,0.00
2013-2-1,11.5,2.7,-4.6,9.1,-2.8,-9.2,90,77,65,30.51,30.30,7,4,16,0.00
2013-2-2,19.2,12.5,6.0,17.5,8.5,2.7,93,84,68,30.29,30.15,6,2,16,0.06
2013-2-3,20.9,15.8,9.0,17.1,11.1,5.3,92,82,68,30.19,30.09,7,3,16,0.04
2013-2-4,22.7,17.4,7.1,17.9,13.8,3.4,93,86,76,30.13,30.00,7,3,14,0.24
2013-2-5,29.1,21.2,6.7,25.6,17.4,2.7,94,85,72,30.21,29.93,7,2,16,0.00
2013-2-6,37.6,27.1,13.0,31.5,22.2,11.1,92,82,66,30.34,30.18,6,2,15,0.06
2013-2-7,34.3,32.2,23.9,32.6,30.9,22.7,97,95,87,30.19,29.98,5,3,14,0.58
2013-2-8,24.9,22.1,18.3,22.4,19.7,16.4,95,90,85,30.52,30.14,5,2,13,0.07
2013-2-9,30.1,26.2,19.7,26.7,23.6,18.3,94,90,83,30.52,30.17,6,3,14,0.00
2013-2-10,44.1,36.6,26.4,42.7,34.8,24.7,98,93,71,30.17,29.54,13,6,27,0.57
2013-2-11,40.4,30.8,25.6,33.1,25.1,20.8,90,79,74,30.14,29.57,16,10,35,0.00
2013-2-12,30.5,24.9,23.1,23.3,20.5,18.1,93,83,73,30.21,30.01,7,3,15,0.00
2013-2-13,40.1,31.8,21.7,32.6,27.7,20.5,96,85,70,30.01,29.81,5,2,10,0.00
2013-2-14,37.9,35.2,30.6,32.4,29.0,23.6,87,78,61,30.08,29.71,9,4,20,0.00
2013-2-15,30.6,23.5,15.9,26.3,13.8,8.2,84,67,48,30.32,30.08,8,4,21,0.00
2013-2-16,17.7,12.9,6.6,8.2,4.9,2.1,83,70,57,30.33,30.27,6,2,13,0.00
2013-2-17,29.6,18.5,3.8,20.8,10.4,0.3,92,72,51,30.35,30.07,6,2,16,0.00
2013-2-18,50.2,36.2,21.3,44.2,30.7,19.3,96,81,69,30.05,29.55,8,5,22,0.45
2013-2-19,20.5,11.6,7.1,18.3,7.2,2.0,91,82,74,30.34,29.70,9,5,21,0.00
2013-2-20,20.6,11.8,4.6,11.9,5.8,-0.4,92,77,67,30.53,30.35,7,2,15,0.00
2013-2-21,26.7,20.3,9.7,24.0,17.5,7.6,94,89,85,30.53,30.09,10,3,24,0.02
2013-2-22,32.3,27.1,24.0,29.1,24.9,22.0,95,91,88,30.08,29.90,11,5,25,0.28
2013-2-23,27.4,24.0,20.0,24.1,19.3,15.9,90,82,72,30.08,29.99,7,5,16,0.00
2013-2-24,38.6,25.4,12.2,22.9,18.3,10.3,93,76,52,30.25,30.08,4,1,7,0.11
2013-2-25,41.4,31.0,19.4,28.5,24.1,17.7,93,77,53,30.27,30.07,5,2,12,0.02
2013-2-26,34.4,32.7,30.5,31.0,28.8,26.5,97,86,73,30.06,29.68,10,5,24,0.19
2013-2-27,32.7,29.5,28.3,30.5,27.9,26.8,96,94,89,29.86,29.67,11,6,17,0.12
2013-2-28,34.6,31.7,25.5,30.3,27.5,21.1,94,84,74,30.21,29.86,9,5,21,0.05
2013-3-1,25.4,23.7,20.3,21.1,19.0,15.7,87,82,77,30.36,30.20,8,5,21,0.00
2013-3-2,27.3,19.6,12.4,15.6,12.4,9.3,89,74,57,30.36,30.29,7,3,14,0.00
2013-3-3,32.5,20.2,5.1,14.4,10.5,2.8,94,68,41,30.29,30.21,4,1,9,0.00
2013-3-4,31.4,25.4,18.1,25.9,19.3,10.0,88,78,67,30.24,30.10,9,4,18,0.00
2013-3-5,31.6,27.5,24.8,30.3,26.0,23.3,96,94,81,30.17,29.93,10,5,20,0.89
2013-3-6,32.6,28.5,24.8,26.7,24.5,22.3,93,85,78,30.43,30.17,6,4,18,0.00
2013-3-7,35.6,29.0,22.7,25.0,23.0,19.9,91,79,63,30.53,30.42,3,1,7,0.10
2013-3-8,38.6,29.3,19.4,27.5,23.6,17.7,94,80,62,30.58,30.39,6,3,15,0.08
2013-3-9,40.8,38.2,29.4,36.2,33.3,24.2,92,82,75,30.39,29.89,10,4,20,0.10
2013-3-10,43.7,41.5,38.9,43.2,40.4,35.6,98,96,86,29.91,29.68,6,3,15,0.77
2013-3-11,41.2,34.4,30.7,40.7,33.4,27.9,98,96,89,29.89,29.65,6,3,15,0.12
2013-3-12,33.8,28.7,24.5,29.7,24.4,19.4,95,84,74,30.14,29.89,9,6,21,0.00
2013-3-13,32.1,25.9,20.1,20.1,14.5,9.2,88,64,40,30.44,30.14,12,5,20,0.00
2013-3-14,34.0,29.6,17.3,30.1,25.5,14.2,95,85,61,30.44,30.19,6,2,13,0.01
2013-3-15,37.9,32.8,28.7,35.0,31.1,27.5,97,93,80,30.19,29.86,7,2,16,0.16
2013-3-16,32.7,29.5,25.5,30.2,25.3,21.5,95,85,72,30.24,29.84,7,3,15,0.00
2013-3-17,34.6,28.2,20.6,24.4,20.1,14.2,84,72,57,30.34,30.09,7,4,17,0.00
2013-3-18,33.7,28.5,18.7,31.3,24.9,13.6,94,86,76,30.08,29.72,13,6,28,0.12
2013-3-19,29.8,22.8,13.4,15.6,13.0,7.7,82,66,50,30.22,29.90,13,7,26,0.00
2013-3-20,21.7,16.1,9.5,10.0,6.7,1.4,77,66,57,30.25,30.17,9,5,20,0.00
2013-3-21,28.8,18.2,9.8,14.8,8.9,4.5,84,68,52,30.21,30.14,7,2,13,0.00
2013-3-22,36.4,25.0,11.4,19.3,14.8,9.4,92,67,43,30.20,30.14,4,1,10,0.01
2013-3-23,39.7,30.8,20.5,26.6,20.7,17.0,88,68,45,30.25,30.14,4,2,13,0.00
2013-3-24,35.7,30.8,29.1,28.7,25.5,22.8,95,81,72,30.16,29.82,10,4,22,0.08
2013-3-25,34.9,30.2,26.8,26.9,23.9,21.1,85,77,69,30.20,29.88,12,5,20,0.00
2013-3-26,40.8,35.3,31.0,27.2,25.3,20.3,81,68,48,30.37,30.20,5,2,13,0.00
2013-3-27,41.3,35.4,27.5,27.7,23.9,20.3,80,64,45,30.43,30.37,5,1,11,0.00
2013-3-28,47.6,37.2,26.4,25.7,23.1,20.1,86,59,37,30.47,30.38,5,1,12,0.00
2013-3-29,52.8,42.6,29.7,28.4,24.9,21.9,74,51,33,30.42,30.32,4,1,9,0.00
2013-3-30,56.3,44.9,33.1,42.1,33.2,23.4,90,64,51,30.33,29.93,8,4,21,0.00
2013-3-31,53.6,43.1,33.9,43.0,35.2,21.1,96,75,48,30.00,29.81,9,5,24,0.01
2013-4-1,37.7,32.0,27.1,20.9,16.8,12.2,67,54,42,30.31,30.00,9,4,19,0.00
2013-4-2,41.7,32.0,22.1,19.8,15.9,10.4,84,54,29,30.43,30.31,7,2,19,0.00
2013-4-3,46.4,34.6,21.0,22.0,16.1,11.0,83,50,26,30.56,30.40,5,1,12,0.00
2013-4-4,57.2,43.5,28.4,38.0,26.7,16.1,71,53,36,30.40,30.07,8,3,17,0.00
2013-4-5,51.1,41.6,31.5,32.6,27.5,22.8,82,58,39,30.32,30.13,10,3,18,0.00
2013-4-6,65.6,49.4,35.4,50.4,35.3,22.7,89,60,36,30.22,29.67,12,6,28,0.15
2013-4-7,61.2,48.9,37.9,49.0,38.7,32.9,88,70,45,30.02,29.70,8,4,22,0.00
2013-4-8,64.1,50.7,37.6,53.1,45.6,32.6,97,83,66,30.03,29.58,10,5,19,0.86
2013-4-9,47.2,42.2,38.8,44.7,40.6,37.2,96,94,90,30.06,29.92,10,4,21,0.28
2013-4-10,40.1,38.1,33.9,38.6,36.8,32.8,96,95,92,30.11,29.93,9,4,21,1.14
2013-4-11,43.0,39.5,36.6,42.2,38.5,35.1,98,96,93,29.95,29.65,13,6,28,0.21
2013-4-12,41.8,37.2,34.7,38.6,34.0,30.1,95,88,77,29.93,29.65,8,5,21,0.01
2013-4-13,43.2,37.0,32.7,30.9,28.7,25.2,84,72,58,30.08,29.93,9,5,19,0.00
2013-4-14,63.0,46.8,34.7,49.8,37.1,28.1,84,69,55,30.09,29.67,11,6,27,0.01
2013-4-15,62.1,52.4,40.3,54.2,46.2,36.9,97,81,43,30.07,29.68,11,4,28,0.25
2013-4-16,55.5,44.6,34.0,38.7,34.9,31.9,95,71,45,30.37,30.04,6,2,13,0.00
2013-4-17,46.1,42.1,39.1,45.3,38.0,31.7,97,86,63,30.38,29.85,10,5,23,2.11
2013-4-18,61.5,49.3,37.6,59.3,47.6,32.3,98,94,81,29.91,29.48,14,5,31,1.65
2013-4-19,39.1,36.1,33.5,32.1,29.7,25.6,85,78,65,30.03,29.53,14,9,30,0.00
2013-4-20,45.3,36.3,27.5,26.7,21.2,15.5,83,57,35,30.50,30.03,7,2,14,0.00
2013-4-21,53.2,42.4,31.3,36.3,29.0,22.9,80,60,45,30.60,30.38,9,6,22,0.00
2013-4-22,66.5,53.7,39.7,41.9,37.6,33.4,78,56,36,30.38,30.10,8,4,19,0.00
2013-4-23,55.3,43.9,37.3,48.7,40.9,32.8,95,89,57,30.11,29.98,7,3,17,0.47
2013-4-24,51.7,42.4,34.9,32.7,27.8,23.5,82,59,34,30.17,30.05,14,4,21,0.00
2013-4-25,50.5,43.5,37.6,37.0,31.1,23.1,87,63,42,30.40,30.12,7,4,17,0.01
2013-4-26,66.6,52.9,37.9,48.0,38.3,25.1,72,58,47,30.40,30.28,11,5,25,0.00
2013-4-27,67.0,57.5,45.0,48.0,44.5,41.1,93,64,42,30.35,30.07,7,2,14,0.00
2013-4-28,68.4,59.4,51.6,52.8,48.8,42.7,80,68,55,30.06,29.88,3,1,9,0.00
2013-4-29,73.6,62.6,51.0,58.3,53.1,49.3,94,73,51,29.96,29.79,9,4,20,0.00
2013-4-30,85.5,72.4,60.0,61.7,55.4,48.9,89,60,30,29.96,29.79,11,6,27,0.00
2013-5-1,84.4,74.2,62.9,58.2,53.4,46.8,72,51,28,30.18,29.96,6,3,16,0.00
2013-5-2,62.2,49.6,41.1,51.5,43.4,37.3,91,79,61,30.32,30.18,7,4,19,0.29
2013-5-3,50.1,44.0,38.5,48.7,42.5,36.9,96,94,90,30.27,30.04,6,3,17,0.32
2013-5-4,70.0,58.6,49.5,56.4,50.4,47.3,94,76,48,30.11,30.02,8,3,19,0.02
2013-5-5,73.7,61.1,46.3,52.5,47.8,41.9,98,66,34,30.12,30.04,8,2,17,0.00
2013-5-6,74.2,62.2,48.6,45.8,41.2,35.4,78,50,28,30.13,30.04,4,2,14,0.00
2013-5-7,79.9,66.8,51.1,47.3,40.1,33.8,72,42,20,30.13,30.03,4,1,8,0.00
2013-5-8,81.4,68.2,51.0,50.2,45.3,40.6,81,47,26,30.10,30.01,3,1,11,0.00
2013-5-9,70.0,61.3,47.7,60.1,54.1,45.9,96,78,52,30.02,29.89,8,2,19,0.78
2013-5-10,49.3,46.8,43.9,46.2,44.3,42.8,96,91,85,30.08,29.88,6,3,17,0.32
2013-5-11,56.7,48.5,40.5,49.1,37.2,25.2,97,69,33,30.15,29.92,9,4,23,0.01
2013-5-12,54.9,45.5,36.7,29.7,26.6,22.9,70,49,29,30.22,30.15,8,3,19,0.00
2013-5-13,65.4,51.9,31.3,39.0,29.4,24.0,90,47,21,30.27,30.03,4,1,13,0.00
2013-5-14,92.0,72.9,54.3,63.7,49.1,37.6,66,46,20,30.02,29.66,5,3,16,0.00
2013-5-15,81.5,73.9,63.4,59.0,48.8,39.5,56,42,23,29.90,29.67,6,3,18,0.00
2013-5-16,85.0,69.7,54.8,51.8,46.2,40.3,76,47,23,30.00,29.89,5,2,13,0.00
2013-5-17,72.2,63.8,58.5,55.1,47.4,39.7,65,55,48,30.10,30.00,8,4,17,0.00
2013-5-18,81.4,68.7,53.3,63.8,57.1,46.5,88,68,49,30.11,29.98,4,2,12,0.00
2013-5-19,87.8,69.5,62.2,65.2,61.5,55.8,95,79,44,30.00,29.77,19,4,40,0.54
2013-5-20,83.2,74.3,63.9,67.8,60.7,56.5,94,65,41,29.81,29.71,8,4,22,0.26
2013-5-21,78.7,68.9,61.6,64.8,60.0,56.6,95,76,48,29.74,29.69,8,4,24,0.00
2013-5-22,72.6,65.0,60.7,63.0,57.8,52.3,93,78,50,29.81,29.67,5,2,15,0.05
2013-5-23,61.0,53.8,41.2,56.9,47.6,36.4,96,81,55,30.38,29.81,7,3,19,0.16
2013-5-24,65.2,50.8,33.9,39.1,35.3,32.6,95,60,34,30.54,30.38,4,2,12,0.00
2013-5-25,57.3,51.5,44.8,41.6,37.9,32.7,72,60,46,30.48,30.37,6,2,12,0.01
2013-5-26,65.9,54.5,45.2,53.8,44.2,35.5,91,70,44,30.38,30.20,6,3,16,0.12
2013-5-27,57.6,55.2,50.1,56.7,53.7,47.6,98,95,90,30.22,29.94,7,4,17,0.06
2013-5-28,76.8,66.2,53.9,71.5,63.7,53.3,99,92,81,29.93,29.75,7,3,19,0.44
2013-5-29,84.4,72.6,62.4,69.0,65.2,60.5,97,79,56,29.99,29.82,5,2,15,0.03
2013-5-30,83.5,69.6,62.4,69.3,63.6,60.5,96,83,57,29.94,29.76,13,4,26,0.41
2013-5-31,74.8,64.5,61.8,67.1,62.2,60.5,97,93,64,29.87,29.75,9,4,21,0.11
2013-6-1,76.0,68.6,63.9,67.0,63.3,57.5,96,84,70,29.77,29.69,6,3,17,0.07
2013-6-2,63.9,56.5,48.2,58.6,48.9,44.0,94,76,63,30.10,29.77,7,3,17,0.00
2013-6-3,72.4,59.0,43.9,49.8,45.9,42.4,98,66,36,30.20,30.09,3,1,9,0.00
2013-6-4,71.8,61.9,50.8,49.1,44.8,39.2,81,55,35,30.24,30.12,5,2,14,0.00
2013-6-5,66.4,58.4,52.8,58.4,51.9,45.5,92,80,62,30.20,30.02,6,2,16,0.30
2013-6-6,63.6,56.5,52.4,57.1,53.1,49.1,96,88,79,30.03,29.95,4,2,9,0.44
2013-6-7,71.8,60.5,53.2,55.1,48.7,42.7,87,68,38,30.05,29.98,4,2,14,0.00
2013-6-8,75.8,63.4,45.6,51.2,45.1,40.0,93,55,30,30.06,30.00,4,1,13,0.00
2013-6-9,79.9,68.4,57.2,62.9,55.2,43.9,92,64,44,30.06,29.84,6,4,17,0.03
2013-6-10,80.3,70.5,60.0,64.6,61.8,59.1,97,76,54,29.92,29.81,3,1,9,0.05
2013-6-11,83.4,73.0,58.8,65.5,62.4,57.4,96,72,48,29.98,29.84,5,1,12,0.00
2013-6-12,85.8,72.3,64.2,73.1,65.6,62.2,94,80,63,29.97,29.64,7,2,15,0.24
2013-6-13,80.4,69.4,60.3,62.5,57.5,53.5,95,69,42,30.10,29.73,7,4,17,0.00
2013-6-14,79.1,66.6,52.4,58.4,54.1,49.5,90,66,43,30.21,30.06,5,2,14,0.00
2013-6-15,81.8,62.1,58.5,69.8,56.7,51.5,95,83,63,30.11,29.89,6,2,15,0.08
2013-6-16,86.1,75.9,66.5,67.6,59.8,53.1,89,61,34,29.98,29.92,6,2,16,0.00
2013-6-17,88.2,74.9,61.1,58.8,54.9,51.2,81,53,29,29.99,29.89,8,2,17,0.00
2013-6-18,74.6,64.5,55.3,58.8,53.2,45.7,84,68,51,30.15,29.98,5,2,14,0.00
2013-6-19,80.3,66.1,49.6,58.3,50.4,44.4,84,59,40,30.21,30.12,5,2,10,0.00
2013-6-20,88.6,74.6,57.5,63.3,55.6,43.4,69,52,38,30.20,30.08,4,2,12,0.00
2013-6-21,76.9,69.8,66.4,67.7,65.5,60.4,96,87,69,30.19,29.83,11,2,18,0.73
2013-6-22,80.4,71.8,64.5,75.1,68.2,63.3,97,89,76,30.17,29.98,8,3,19,2.17
2013-6-23,85.6,73.2,67.2,74.0,67.4,64.7,95,83,58,30.09,29.93,6,3,18,0.06
2013-6-24,82.2,68.9,65.8,70.8,66.3,64.1,96,92,67,30.11,29.89,6,2,16,0.24
2013-6-25,82.5,74.5,64.7,75.4,70.0,63.5,97,87,74,30.03,29.84,8,2,24,1.14
2013-6-26,80.6,72.3,65.3,72.4,68.6,64.1,96,89,69,29.86,29.77,6,2,15,2.74
2013-6-27,88.1,80.0,68.4,73.0,67.6,60.0,97,68,43,29.85,29.75,8,2,22,0.00
2013-6-28,79.2,70.8,63.9,65.9,61.7,59.3,96,74,52,29.78,29.67,7,3,30,0.18
2013-6-29,71.1,65.1,61.3,63.8,61.6,57.1,97,89,66,29.86,29.66,4,2,12,1.13
2013-6-30,79.2,68.2,60.4,62.2,55.4,48.0,86,66,37,30.08,29.87,6,3,20,0.00
2013-7-1,78.7,67.8,54.9,55.5,50.6,47.4,79,57,34,30.15,30.07,6,2,18,0.00
2013-7-2,76.8,65.1,53.6,55.2,50.9,41.0,92,64,30,30.16,30.11,4,2,13,0.00
2013-7-3,72.6,63.8,54.4,62.8,58.3,52.0,95,83,71,30.14,30.09,2,1,6,0.00
2013-7-4,82.7,71.7,57.9,65.4,61.0,57.1,98,72,48,30.16,30.07,4,1,11,0.00
2013-7-5,84.1,74.7,63.3,65.4,62.2,58.7,85,67,47,30.13,30.05,4,2,14,0.00
2013-7-6,86.5,73.9,62.9,68.4,63.8,60.3,92,73,47,30.10,30.01,3,1,10,0.00
2013-7-7,88.6,79.0,69.7,72.3,68.7,65.9,93,73,49,30.05,29.97,4,2,12,0.00
2013-7-8,86.4,76.4,69.9,76.5,71.3,67.8,95,85,71,30.03,29.96,8,4,20,0.53
2013-7-9,84.1,78.6,72.3,76.3,74.1,70.7,97,86,75,30.02,29.90,6,2,17,0.12
2013-7-10,81.5,76.8,64.1,75.5,67.2,55.8,95,74,46,30.06,29.89,10,3,16,0.00
2013-7-11,81.8,69.3,57.8,61.0,57.6,53.6,98,70,39,30.18,30.06,3,1,10,0.00
2013-7-12,84.8,71.0,56.2,56.9,53.4,47.2,90,58,29,30.22,30.13,3,1,9,0.00
2013-7-13,84.2,79.1,61.4,63.7,59.5,55.4,86,52,43,30.22,30.14,6,2,10,0.00
2013-7-14,87.4,76.9,64.7,69.9,65.8,60.4,89,70,50,30.26,30.20,4,2,14,0.00
2013-7-15,93.1,80.2,70.0,75.0,70.7,66.2,88,74,49,30.31,30.24,4,2,11,0.00
2013-7-16,91.3,82.4,73.4,76.0,73.8,71.6,94,76,57,30.33,30.27,3,1,12,0.00
2013-7-17,92.4,84.1,75.6,75.1,73.5,71.5,90,72,52,30.35,30.21,4,1,11,0.00
2013-7-18,91.6,84.0,74.4,75.5,73.4,71.3,92,72,53,30.22,29.98,6,2,15,0.00
2013-7-19,90.8,84.0,75.6,75.1,72.5,69.7,83,69,53,29.97,29.79,8,4,22,0.00
2013-7-20,86.2,75.8,63.5,69.0,64.1,60.7,95,69,45,30.00,29.86,5,2,13,0.00
2013-7-21,83.9,71.8,63.3,70.1,64.5,59.7,91,79,60,30.01,29.90,6,3,19,0.00
2013-7-22,86.5,75.4,63.1,71.2,66.1,62.1,97,75,51,29.94,29.77,6,2,29,0.00
2013-7-23,76.6,69.0,59.0,63.8,60.2,53.5,96,76,48,30.04,29.75,12,3,19,0.02
2013-7-24,74.9,64.2,52.8,55.9,53.5,51.5,97,71,46,30.14,30.05,3,1,11,0.00
2013-7-25,79.1,68.1,54.1,61.7,57.3,52.1,95,70,51,30.17,30.06,3,2,10,0.00
2013-7-26,73.5,65.7,58.3,68.2,62.5,56.9,97,90,72,30.06,29.93,7,2,22,1.42
2013-7-27,63.2,58.7,54.4,56.7,49.7,46.6,96,73,59,30.02,29.95,6,3,16,0.00
2013-7-28,67.6,59.1,53.1,53.1,50.4,48.4,87,74,56,30.10,29.94,4,2,14,0.00
2013-7-29,77.5,63.7,51.1,59.6,55.2,49.6,95,75,51,30.23,30.10,4,1,12,0.00
2013-7-30,70.7,63.4,57.2,64.0,60.2,55.7,97,90,72,30.24,30.14,3,2,11,0.12
2013-7-31,77.9,67.8,60.3,67.0,63.6,58.6,98,87,67,30.14,30.01,3,1,12,0.02
2013-8-1,78.4,68.2,59.2,61.1,58.1,53.8,97,73,44,30.07,29.98,6,1,16,0.02
2013-8-2,82.0,72.1,61.9,68.0,62.0,57.9,96,72,51,30.00,29.91,4,2,13,0.25
2013-8-3,78.5,69.2,57.9,58.2,54.5,47.4,89,62,36,30.19,30.01,5,2,14,0.00
2013-8-4,76.3,66.8,54.3,61.0,55.9,52.0,92,70,43,30.27,30.17,3,1,8,0.00
2013-8-5,71.9,64.4,58.2,65.4,60.1,54.5,94,86,66,30.18,29.93,6,2,16,0.12
2013-8-6,82.7,72.5,66.1,72.9,69.1,64.6,98,90,69,29.96,29.87,3,1,11,1.20
2013-8-7,84.7,76.1,66.6,71.9,68.1,62.3,97,78,52,30.01,29.82,6,2,17,0.00
2013-8-8,77.4,69.0,62.1,63.4,61.1,54.8,97,77,55,30.09,30.01,5,2,14,0.00
2013-8-9,80.7,70.3,56.2,66.5,60.0,51.9,92,71,56,30.11,30.03,4,1,11,0.00
2013-8-10,78.3,68.3,56.8,61.0,57.1,52.5,96,70,42,30.20,30.11,3,1,14,0.00
2013-8-11,77.5,67.1,55.4,68.4,61.9,54.6,98,84,60,30.20,30.08,4,0,9,0.01
2013-8-12,81.6,73.0,65.5,69.5,65.3,59.8,95,78,59,30.09,29.94,5,2,12,0.00
2013-8-13,70.2,62.9,54.2,60.1,51.1,45.6,92,67,44,30.22,30.01,5,2,15,0.00
2013-8-14,73.7,53.3,47.8,54.6,49.8,46.5,97,90,44,30.30,30.20,3,0,9,0.00
2013-8-15,76.2,63.9,52.8,57.9,53.7,50.3,92,71,46,30.24,30.16,2,1,7,0.00
2013-8-16,81.1,67.9,53.2,59.5,54.6,51.7,96,66,38,30.25,30.20,3,1,11,0.00
2013-8-17,81.7,69.2,57.0,60.3,55.9,53.4,91,65,42,30.30,30.22,3,1,10,0.00
2013-8-18,81.5,69.2,54.4,62.5,57.4,53.1,97,69,44,30.28,30.16,3,1,10,0.00
2013-8-19,82.5,70.6,57.8,65.1,61.2,55.7,94,74,53,30.18,30.08,4,1,10,0.00
2013-8-20,84.2,75.1,65.0,67.9,65.2,62.4,92,73,53,30.16,30.07,5,2,13,0.00
2013-8-21,87.9,78.5,69.4,69.8,67.3,64.9,86,70,51,30.11,30.00,6,3,17,0.00
2013-8-22,76.5,70.1,64.0,69.4,66.9,63.1,97,90,78,30.19,30.03,7,1,19,1.09
2013-8-23,81.3,70.3,57.4,63.4,57.6,52.9,97,67,42,30.24,30.16,6,2,17,0.01
2013-8-24,83.6,71.8,59.1,67.9,62.7,53.2,94,74,53,30.31,30.22,4,2,12,0.00
2013-8-25,88.6,77.2,67.0,71.0,65.6,58.8,82,69,44,30.28,30.17,6,3,16,0.00
2013-8-26,89.4,79.0,69.2,74.4,69.3,63.8,85,73,55,30.19,30.03,5,2,17,0.00
2013-8-27,92.7,82.9,74.6,75.4,72.0,69.8,87,71,51,30.04,29.87,7,3,18,0.00
2013-8-28,85.8,78.2,69.5,73.4,70.7,66.6,91,78,64,30.08,29.87,3,1,10,0.00
2013-8-29,86.5,74.5,66.1,70.7,67.9,64.9,98,82,55,30.15,30.02,3,1,12,0.00
2013-8-30,94.7,77.8,69.1,76.9,71.0,67.6,96,82,49,30.03,29.77,6,2,20,0.22
2013-8-31,78.4,71.1,65.4,70.6,67.4,63.9,96,88,77,29.92,29.84,4,1,10,0.00
2013-9-1,85.6,73.0,61.0,72.8,66.5,60.1,98,81,62,29.88,29.77,4,1,10,0.00
2013-9-2,73.8,65.9,55.3,62.1,58.5,53.0,94,78,54,30.07,29.88,5,2,13,0.00
2013-9-3,74.3,61.7,48.8,57.0,53.6,48.0,97,78,49,30.17,30.07,3,1,8,0.00
2013-9-4,82.6,68.0,53.7,65.0,59.2,52.8,97,76,51,30.20,30.12,3,1,10,0.00
2013-9-5,75.8,67.5,58.6,64.6,58.8,49.9,97,75,56,30.31,30.16,6,3,15,0.00
2013-9-6,84.6,71.5,58.0,68.3,60.5,49.7,84,69,54,30.28,30.05,4,2,12,0.00
2013-9-7,88.9,76.7,66.9,70.9,66.0,62.2,89,71,49,30.05,29.92,5,2,17,0.00
2013-9-8,74.9,70.4,66.5,69.2,66.3,64.1,92,87,79,30.07,29.97,5,3,14,0.00
2013-9-9,92.5,78.9,66.7,76.8,71.1,64.8,97,79,59,30.00,29.84,5,3,15,0.00
2013-9-10,94.3,84.1,73.8,70.0,64.7,59.3,71,54,32,30.02,29.90,7,4,19,0.00
2013-9-11,83.5,76.0,68.3,72.1,67.2,64.7,90,75,54,30.09,30.00,5,1,12,0.02
2013-9-12,76.8,68.0,57.9,65.1,58.2,48.4,98,74,41,30.17,30.03,14,3,22,0.01
2013-9-13,67.1,58.2,47.9,52.6,42.5,37.3,84,58,34,30.28,30.17,5,2,15,0.00
2013-9-14,71.0,57.4,41.7,51.2,45.6,40.6,97,68,41,30.27,30.09,4,1,10,0.00
2013-9-15,58.3,55.2,52.3,55.9,52.1,46.0,96,90,64,30.27,30.05,4,1,11,1.06
2013-9-16,66.6,55.8,46.8,54.5,47.8,42.8,96,76,49,30.46,30.28,4,2,14,0.00
2013-9-17,69.5,57.9,44.1,56.2,51.2,42.8,96,80,58,30.41,30.17,5,2,14,0.00
2013-9-18,75.0,66.2,57.6,68.9,61.7,53.8,94,86,71,30.17,29.96,5,2,13,0.16
2013-9-19,90.8,76.3,68.8,74.3,68.7,64.9,96,79,50,29.98,29.79,7,3,20,0.11
2013-9-20,71.0,64.5,55.1,65.4,57.7,52.2,96,79,62,29.91,29.79,5,2,16,0.05
2013-9-21,64.5,55.6,45.2,52.4,48.6,43.3,96,79,55,30.03,29.90,6,2,18,0.00
2013-9-22,68.5,53.7,41.0,49.3,45.8,40.2,98,77,46,30.15,30.03,4,1,11,0.00
2013-9-23,68.8,56.7,46.9,53.1,48.8,44.7,94,77,53,30.19,30.09,4,3,10,0.00
2013-9-24,71.4,59.0,48.6,53.0,49.8,45.8,91,74,46,30.11,29.99,5,3,14,0.00
2013-9-25,72.4,60.3,45.7,55.6,49.9,44.9,97,71,48,30.06,30.00,5,2,13,0.00
2013-9-26,78.3,62.0,46.4,57.2,51.1,45.3,98,72,34,30.14,30.04,4,2,10,0.00
2013-9-27,81.2,66.7,54.5,57.4,53.3,49.3,90,65,37,30.21,30.09,5,2,16,0.00
2013-9-28,81.3,66.6,54.5,65.8,56.2,47.8,95,71,48,30.11,29.92,9,4,25,0.10
2013-9-29,71.0,58.1,50.1,54.6,47.6,40.9,97,72,35,30.14,30.03,3,1,8,0.01
2013-9-30,75.3,60.5,44.5,52.3,46.8,42.9,95,64,34,30.08,29.91,5,2,14,0.00
2013-10-1,82.7,68.4,58.2,64.2,60.3,53.1,95,77,48,30.02,29.92,7,3,19,0.00
2013-10-2,79.6,66.4,53.9,61.6,50.6,40.8,97,62,30,30.16,30.02,5,2,11,0.00
2013-10-3,76.3,67.6,60.4,69.2,64.1,48.9,97,89,65,30.04,29.88,4,2,9,0.21
2013-10-4,70.6,67.2,64.1,69.1,65.8,62.6,97,95,89,30.05,29.92,6,2,17,1.22
2013-10-5,74.5,68.2,60.8,71.5,66.0,54.6,98,93,80,29.98,29.82,6,2,16,0.03
2013-10-6,60.3,50.5,43.8,51.2,42.7,39.3,94,76,54,29.85,29.77,5,2,13,0.00
2013-10-7,69.3,53.6,43.6,49.3,45.3,41.4,95,76,43,30.16,29.84,4,2,14,0.00
2013-10-8,76.7,59.6,43.4,51.6,46.4,42.5,97,67,33,30.25,30.16,4,1,14,0.00
2013-10-9,74.4,60.4,48.8,50.8,46.0,38.8,91,63,28,30.30,30.19,4,1,9,0.00
2013-10-10,75.6,60.6,48.4,54.3,50.0,46.5,94,71,42,30.24,30.10,6,1,11,0.00
2013-10-11,75.8,63.9,54.5,60.3,54.9,50.9,90,74,53,30.12,29.98,7,2,20,0.00
2013-10-12,69.7,61.2,45.9,61.6,51.9,40.7,92,73,42,30.24,29.98,5,2,15,0.01
2013-10-13,62.6,49.5,36.5,43.4,38.5,34.0,96,69,35,30.49,30.24,4,1,12,0.00
2013-10-14,62.4,50.1,35.7,46.7,41.8,34.1,97,75,51,30.50,30.20,5,2,15,0.00
2013-10-15,65.4,54.7,47.1,61.2,49.5,42.2,96,83,72,30.19,29.82,5,3,15,0.37
2013-10-16,50.9,49.0,46.1,48.3,45.6,41.8,95,88,82,30.03,29.90,4,2,13,0.02
2013-10-17,53.8,46.9,40.4,46.4,44.3,37.7,97,91,67,30.01,29.91,3,1,13,0.28
2013-10-18,47.4,43.7,38.1,42.2,39.2,36.0,94,84,73,30.05,29.91,5,1,15,0.00
2013-10-19,51.6,43.4,36.7,40.7,37.2,32.8,93,80,50,30.02,29.85,5,2,17,0.00
2013-10-20,56.2,38.8,33.2,47.1,36.6,32.4,97,92,67,29.95,29.81,5,0,12,0.01
2013-10-21,51.5,43.2,31.7,44.2,33.9,24.4,83,70,51,30.06,29.87,8,3,17,0.00
2013-10-22,39.7,33.6,25.8,34.9,29.3,23.8,96,85,64,30.09,30.02,2,0,5,0.00
2013-10-23,42.0,35.0,27.7,30.8,28.2,26.2,96,77,59,30.13,30.04,4,1,13,0.00
2013-10-24,41.4,36.1,29.2,29.7,26.5,21.5,83,69,52,30.42,30.12,5,2,15,0.00
2013-10-25,51.2,29.0,23.9,31.8,24.1,21.8,94,83,43,30.51,30.11,7,1,22,0.00
2013-10-26,52.8,44.8,32.9,37.1,30.5,27.1,85,58,43,30.17,29.93,9,4,27,0.00
2013-10-27,54.6,40.8,26.7,33.3,30.1,25.2,95,68,42,30.17,30.03,5,1,14,0.00
2013-10-28,48.5,41.3,33.5,40.7,35.1,30.3,91,79,69,30.47,30.14,4,1,16,0.00
2013-10-29,59.7,45.7,36.4,42.7,37.9,32.3,92,76,43,30.46,30.22,6,2,16,0.00
2013-10-30,57.4,52.2,48.0,56.8,50.7,42.3,98,95,80,30.22,29.82,5,2,13,0.44
2013-10-31,61.5,56.3,43.6,60.9,55.2,40.6,98,96,89,29.81,29.33,5,3,16,0.53
2013-11-1,46.3,43.6,39.9,43.8,40.9,38.4,97,90,84,29.84,29.46,6,2,18,0.06
2013-11-2,46.6,39.9,33.2,40.0,36.5,32.2,97,88,65,30.25,29.84,4,1,12,0.02
2013-11-3,51.9,39.5,29.6,39.5,33.9,28.9,98,82,52,30.40,30.25,4,2,13,0.17
2013-11-4,55.9,48.7,42.0,45.0,40.5,36.2,83,74,59,30.32,30.14,9,4,25,0.00
2013-11-5,53.6,51.0,48.8,50.6,47.8,44.9,96,89,80,30.32,29.98,8,3,22,0.12
2013-11-6,55.9,44.7,31.6,54.8,41.3,26.4,96,88,71,30.27,29.83,8,4,27,0.39
2013-11-7,39.3,33.5,25.5,32.6,29.0,23.5,94,84,71,30.35,30.27,5,2,13,0.00
2013-11-8,46.5,37.5,24.2,35.1,30.4,23.2,96,77,57,30.43,29.97,7,3,19,0.00
2013-11-9,55.6,48.0,38.5,41.6,37.1,26.0,77,66,56,30.21,29.90,11,6,30,0.00
2013-11-10,48.1,40.5,32.3,33.0,30.5,27.7,83,68,52,30.44,30.20,8,3,15,0.00
2013-11-11,44.9,34.5,19.6,35.2,28.5,16.1,95,80,63,30.65,30.17,7,4,23,0.05
2013-11-12,29.8,22.5,16.3,19.9,16.2,13.4,88,77,58,30.84,30.66,6,2,13,0.00
2013-11-13,40.3,29.1,17.6,22.2,17.6,13.4,84,64,40,30.71,30.25,9,4,23,0.00
2013-11-14,48.3,39.8,31.8,30.2,25.7,19.7,67,57,47,30.25,30.01,8,4,22,0.00
2013-11-15,53.6,43.1,35.6,36.2,30.9,25.0,86,63,47,30.05,29.98,5,3,12,0.00
2013-11-16,58.7,49.4,37.8,55.8,47.4,34.3,97,93,85,29.99,29.61,11,6,28,0.02
2013-11-17,67.1,53.0,40.1,62.4,50.0,35.4,97,90,80,29.81,29.16,13,6,36,1.11
2013-11-18,40.4,35.7,28.3,34.9,28.5,24.1,86,75,58,30.36,29.83,9,5,23,0.00
2013-11-19,41.5,31.1,20.5,29.1,25.2,19.3,95,80,58,30.48,30.36,4,2,11,0.00
2013-11-20,40.4,35.3,30.2,36.1,30.9,27.4,95,84,67,30.37,30.18,9,4,19,0.12
2013-11-21,45.2,41.4,37.5,41.4,38.8,36.2,96,91,83,30.32,30.19,4,1,11,0.00
2013-11-22,39.7,32.8,23.9,37.3,27.6,18.3,94,81,63,30.59,30.32,8,4,20,0.03
2013-11-23,23.8,19.0,11.9,17.9,9.4,4.1,80,66,49,30.85,30.55,10,5,24,0.00
2013-11-24,26.3,17.3,7.7,10.8,6.4,3.7,87,64,38,30.85,30.47,7,3,18,0.00
2013-11-25,31.1,26.6,20.7,27.1,20.9,11.1,90,79,61,30.46,30.17,8,5,21,0.00
2013-11-26,31.9,28.3,12.9,27.2,24.0,5.6,89,84,57,30.32,30.14,8,2,22,0.00
2013-11-27,25.1,17.5,8.7,14.4,9.4,3.4,81,71,58,30.40,30.31,6,2,16,0.00
2013-11-28,29.5,23.7,15.0,18.2,15.3,12.3,92,70,59,30.62,30.29,5,2,12,0.00
2013-11-29,33.1,24.1,12.9,23.2,17.1,11.0,94,76,54,30.75,30.49,5,2,13,0.00
2013-11-30,48.6,35.8,27.5,34.2,28.6,22.6,93,76,57,30.49,30.13,6,3,15,0.00
2013-12-1,41.3,33.6,28.3,30.0,28.2,25.1,95,81,62,30.23,30.08,3,1,9,0.00
2013-12-2,41.4,34.8,28.9,33.6,30.3,27.1,95,84,65,30.07,29.82,6,3,16,0.03
2013-12-3,44.5,39.8,34.9,44.0,39.0,33.6,98,97,95,29.82,29.75,6,3,15,0.02
2013-12-4,51.5,46.0,32.8,51.0,45.1,30.5,98,97,90,29.81,29.56,10,4,24,0.05
2013-12-5,32.5,22.6,16.5,30.2,16.8,10.0,92,78,69,30.38,29.77,10,6,23,0.00
2013-12-6,17.7,13.2,8.6,10.4,6.8,3.1,82,75,64,30.70,30.37,5,3,12,0.00
2013-12-7,16.5,9.3,4.1,5.0,3.0,0.8,86,76,58,30.85,30.70,4,2,10,0.00
2013-12-8,22.9,18.3,8.8,21.3,14.4,4.5,94,85,68,30.75,30.08,5,2,14,0.19
2013-12-9,22.4,11.9,-2.8,20.8,7.7,-6.4,94,83,72,30.35,30.06,11,5,23,0.00
2013-12-10,19.7,9.9,-4.5,12.2,3.6,-7.6,86,76,62,30.43,30.12,10,5,23,0.00
2013-12-11,17.8,13.6,-3.0,13.2,7.7,-8.4,91,78,53,30.70,30.40,13,3,19,0.00
2013-12-12,16.8,8.2,-5.0,11.2,2.4,-8.8,86,77,67,30.67,30.34,8,3,20,0.00
2013-12-13,27.7,21.4,11.9,25.8,17.1,9.8,93,83,68,30.34,30.23,5,2,13,0.00
2013-12-14,29.1,25.3,18.9,27.0,22.8,16.7,94,90,83,30.23,30.07,6,3,14,0.09
2013-12-15,20.9,12.2,9.3,18.0,6.3,0.9,89,77,66,30.26,30.05,7,4,17,0.00
2013-12-16,15.6,11.3,4.8,13.5,5.3,-2.7,93,77,59,30.29,30.16,4,1,9,0.06
2013-12-17,34.3,24.2,15.2,26.4,19.2,13.5,94,82,60,30.21,30.06,8,5,23,0.01
2013-12-18,33.6,24.4,13.7,27.4,17.4,10.8,88,75,54,30.25,29.92,9,4,24,0.00
2013-12-19,35.7,31.8,26.3,31.5,28.8,24.3,96,88,79,30.03,29.91,6,2,16,0.06
2013-12-20,32.5,27.9,24.6,31.5,26.8,23.4,96,95,95,29.93,29.85,4,2,11,0.05
2013-12-21,31.5,26.9,24.5,30.7,26.0,23.5,97,96,95,29.99,29.73,4,1,9,0.07
2013-12-22,31.4,26.0,23.6,30.4,24.7,21.9,97,95,92,30.23,29.73,6,2,12,0.56
2013-12-23,23.4,6.7,-6.1,21.9,3.5,-9.7,94,86,80,30.60,30.24,6,4,13,0.00
2013-12-24,15.1,2.3,-10.4,12.4,-6.3,-92.2,91,83,73,30.73,30.48,4,2,11,0.00
2013-12-25,23.9,21.0,15.4,22.1,18.4,12.7,94,90,84,30.47,30.22,6,4,15,0.00
2013-12-26,29.7,21.9,10.3,26.6,18.5,8.0,93,87,78,30.39,30.24,5,2,14,0.00
2013-12-27,40.4,29.8,16.8,32.0,26.0,15.4,96,86,71,30.38,30.17,10,3,23,0.15
2013-12-28,44.9,37.8,30.1,34.6,31.8,27.9,94,79,67,30.19,29.88,6,3,19,0.09
2013-12-29,39.1,23.7,2.0,31.8,19.0,-3.8,93,82,73,30.34,29.85,11,5,23,0.00
2013-12-30,6.2,0.6,-5.9,0.1,-6.1,-11.7,86,73,57,30.48,30.34,4,1,11,0.00
2013-12-31,8.5,4.0,-2.6,5.2,0.7,-5.5,89,86,79,30.50,30.35,4,1,7,0.08
2014-1-1,15.1,9.2,5.3,12.7,6.2,2.5,90,87,83,30.45,30.37,0,0,0,0.34
2014-1-2,13.5,7.6,-2.6,6.1,2.9,-5.5,89,81,69,30.58,30.34,7,2,20,0.00